(353241) = 2010 CA108

Discovered at Kitt Peak on 2010-02-14 by Spacewatch.

Orbit

Orbit type: Main Belt

Note: WebGL enabled browser required.

epoch2024-03-31.0
epoch JD2460400.5
perihelion date2023-04-19.82391
perihelion JD2460054.32391
argument of perihelion (°)290.77034
ascending node (°)143.58975
inclination (°)3.16731
eccentricity0.1371282
perihelion distance (AU)1.9832536
Tisserand w.r.t. Jupiter3.6
ΔV w.r.t. Earth (km/sec)8.8
semimajor axis (AU)2.2984337
mean anomaly (°)97.91584
mean daily motion (°/day)0.28284980
aphelion distance (AU)2.614
period (years)3.48
P-vector [x]0.26874293
P-vector [y]0.90300723
P-vector [z]0.33519424
Q-vector [x]-0.96265347
Q-vector [y]0.23995075
Q-vector [z]0.12538717
absolute magnitude17.8
phase slope0.15
uncertainty0
referenceMPEC 2024-F14
observations used196
oppositions12
arc length (days)7656
first opposition used2003
last opposition used2024
residual rms (arc-secs)0.76
perturbers coarse indicatorM-v
perturbers precise indicator003Ek
first observation date used2003-04-01.0
last observation date used2024-03-17.0
computer nameMPCLINUX
JD of orbit computation2456847.640062
perihelion JD uncertainty (days)8.5383E-05
argument of perihelion uncertainty (°)7.9601E-05
ascending node uncertainty (°)7.6897E-05
inclination uncertainty (°)4.3689E-06
eccentricity uncertainty 3.9126E-08
perihelion distance uncertainty (AU)9.3733E-08
Minimum Orbit Intersection Distances (in AU)
for orbit epoch: 2460400.5, reference: E2024-G95
Mercury1.67749
Venus1.26385
Earth1.00126
Mars0.42638
Jupiter2.6221
Saturn7.03922
Uranus16.1005
Neptune27.6882

Observations

198 total observations over interval: 2003 04 01.226580 – 2024 03 17.524689
These data are available for download (format description).

Date (UT) J2000 RA J2000 Dec Magn Location Ref
2003 04 01.226580 11 25 40.248 +07 01 29.61 20.98 V 645 – Apache Point-Sloan Digital Sky Survey MPS 395117
2003 04 01.230052 11 25 40.083 +07 01 30.69 21.64   645 – Apache Point-Sloan Digital Sky Survey MPS 395117
2008 08 21.40347 23 48 18.00 -03 20 27.9 21.2 V 691 – Steward Observatory, Kitt Peak-Spacewatch MPS 327511
2008 08 21.42103 23 48 17.35 -03 20 33.4 21.0 V 691 – Steward Observatory, Kitt Peak-Spacewatch MPS 327511
2008 08 21.43859 23 48 16.75 -03 20 39.9 20.9 V 691 – Steward Observatory, Kitt Peak-Spacewatch MPS 327511
2008 09 07.29870 23 36 05.86 -05 16 09.6 20.2 V G96 – Mt. Lemmon Survey MPS 327511
2008 09 07.30333 23 36 05.58 -05 16 11.4 20.0 V G96 – Mt. Lemmon Survey MPS 327511
2008 09 07.30808 23 36 05.36 -05 16 13.6 19.8 V G96 – Mt. Lemmon Survey MPS 327511
2008 09 07.31266 23 36 05.11 -05 16 15.8 20.1 V G96 – Mt. Lemmon Survey MPS 327511
2008 09 23.24857 23 21 45.46 -07 15 34.7 20.2 V G96 – Mt. Lemmon Survey MPS 327511
2008 09 23.25530 23 21 45.10 -07 15 37.6 20.1 V G96 – Mt. Lemmon Survey MPS 327511
2008 09 23.26201 23 21 44.71 -07 15 40.5 20.1 V G96 – Mt. Lemmon Survey MPS 327511
2008 09 23.26871 23 21 44.35 -07 15 43.1 20.3 V G96 – Mt. Lemmon Survey MPS 327511
2010 02 14.36849 12 20 36.40 +00 06 23.9 21.0 V 691 – Steward Observatory, Kitt Peak-Spacewatch MPS 313840
2010 02 14.38955 12 20 35.90 +00 06 29.5 20.8 V 691 – Steward Observatory, Kitt Peak-Spacewatch MPS 313840
2010 02 14.40468 12 20 35.52 +00 06 33.4 21.0 V 691 – Steward Observatory, Kitt Peak-Spacewatch MPS 313840
2010 02 15.40557 12 20 12.12 +00 11 19.4 21.2 V 691 – Steward Observatory, Kitt Peak-Spacewatch MPS 313840
2010 02 15.42319 12 20 11.64 +00 11 24.3 21.4 V 691 – Steward Observatory, Kitt Peak-Spacewatch MPS 313840
2010 02 15.43832 12 20 11.27 +00 11 28.7 20.9 V 691 – Steward Observatory, Kitt Peak-Spacewatch MPS 313840
2010 03 16.18738 11 58 56.22 +03 26 11.4 20.6 V 691 – Steward Observatory, Kitt Peak-Spacewatch MPS 319448
2010 03 16.20503 11 58 55.20 +03 26 19.4 20.5 V 691 – Steward Observatory, Kitt Peak-Spacewatch MPS 319448
2010 03 16.22267 11 58 54.16 +03 26 27.7 20.5 V 691 – Steward Observatory, Kitt Peak-Spacewatch MPS 319448
2010 03 20.19255 11 55 09.00 +03 56 22.1 20.6 V 691 – Steward Observatory, Kitt Peak-Spacewatch MPS 319448
2010 03 20.21023 11 55 07.94 +03 56 30.3 21.0 V 691 – Steward Observatory, Kitt Peak-Spacewatch MPS 319448
2010 03 20.22791 11 55 06.96 +03 56 37.9 20.5 V 691 – Steward Observatory, Kitt Peak-Spacewatch MPS 319448
2010 04 07.32112 11 39 41.91 +05 51 32.9 20.9 V 291 – LPL/Spacewatch II MPS 320748
2010 04 07.32496 11 39 41.73 +05 51 33.9 21.1 V 291 – LPL/Spacewatch II MPS 320748
2010 04 07.32881 11 39 41.55 +05 51 35.0 20.9 V 291 – LPL/Spacewatch II MPS 320748
2010 04 08.27245 11 39 02.45 +05 56 09.2 21.3 V 291 – LPL/Spacewatch II MPS 320748
2010 04 08.27649 11 39 02.28 +05 56 10.5 21.2 V 291 – LPL/Spacewatch II MPS 320748
2010 04 08.28028 11 39 02.10 +05 56 11.6 21.3 V 291 – LPL/Spacewatch II MPS 320748
2012 12 12.30413 06 25 39.80 +18 15 01.0 19.6 R 926 – Tenagra II Observatory, Nogales MPS 446067
2012 12 12.31891 06 25 38.87 +18 15 02.4 19.1 R 926 – Tenagra II Observatory, Nogales MPS 446067
2012 12 12.33239 06 25 38.08 +18 15 03.0 19.7 R 926 – Tenagra II Observatory, Nogales MPS 446067
2013 01 04.22688 06 01 49.15 +18 58 08.0 19.2 V G96 – Mt. Lemmon Survey MPS 448783
2013 01 04.23331 06 01 48.79 +18 58 08.8 19.1 V G96 – Mt. Lemmon Survey MPS 448783
2013 01 04.23977 06 01 48.36 +18 58 09.8 19.1 V G96 – Mt. Lemmon Survey MPS 448783
2013 01 04.24621 06 01 48.00 +18 58 10.7 19.3 V G96 – Mt. Lemmon Survey MPS 448783
2013 01 04.25263 06 01 47.60 +18 58 11.7 19.3 V G96 – Mt. Lemmon Survey MPS 448783
2014 05 21.29434 15 44 58.78 -14 31 35.8 20.8 V G96 – Mt. Lemmon Survey MPS 516376
2014 05 21.30060 15 44 58.32 -14 31 34.9 21.4 V G96 – Mt. Lemmon Survey MPS 516376
2014 05 21.30687 15 44 57.90 -14 31 33.6 20.5 V G96 – Mt. Lemmon Survey MPS 516376
2014 05 21.31313 15 44 57.51 -14 31 32.6 20.6 V G96 – Mt. Lemmon Survey MPS 516376
2014 05 24.37106 15 41 50.509 -14 22 02.99 21.1 w F51 – Pan-STARRS 1, Haleakala MPS 517823
2014 05 24.38369 15 41 49.714 -14 22 00.72 21.1 w F51 – Pan-STARRS 1, Haleakala MPS 517823
2014 05 24.43775 15 41 46.306 -14 21 50.96 21.2 w F51 – Pan-STARRS 1, Haleakala MPS 517823
2014 05 24.45038 15 41 45.509 -14 21 48.65 21.2 w F51 – Pan-STARRS 1, Haleakala MPS 517823
2014 06 02.27380 15 33 11.67 -13 57 49.3 21.3 V G96 – Mt. Lemmon Survey MPS 518782
2014 06 02.27901 15 33 11.39 -13 57 48.1 21.1 V G96 – Mt. Lemmon Survey MPS 518782
2014 06 02.28418 15 33 11.09 -13 57 47.9 21.2 V G96 – Mt. Lemmon Survey MPS 518782
2014 06 02.28935 15 33 10.79 -13 57 46.8 21.8 V G96 – Mt. Lemmon Survey MPS 518782
2014 06 03.41443 15 32 09.643 -13 55 08.70 21.2 w F51 – Pan-STARRS 1, Haleakala MPS 518782
2014 06 03.42714 15 32 08.939 -13 55 06.92 21.4 w F51 – Pan-STARRS 1, Haleakala MPS 518782
2014 06 03.45251 15 32 07.529 -13 55 03.26 21.5 w F51 – Pan-STARRS 1, Haleakala MPS 518782
2014 06 21.34599 15 19 24.517 -13 30 51.88 21.4 w F51 – Pan-STARRS 1, Haleakala MPS 521248
2014 06 21.37125 15 19 23.704 -13 30 51.17 21.7 w F51 – Pan-STARRS 1, Haleakala MPS 521248
2014 06 21.38389 15 19 23.308 -13 30 50.75 21.7 w F51 – Pan-STARRS 1, Haleakala MPS 521248
2015 08 09.57138 00 12 19.730 -00 31 58.13 21.0 i F51 – Pan-STARRS 1, Haleakala MPS 621028
2015 08 09.59445 00 12 19.643 -00 32 01.34 21.1 i F51 – Pan-STARRS 1, Haleakala MPS 621028
2015 08 09.60616 00 12 19.604 -00 32 03.47 21.2 i F51 – Pan-STARRS 1, Haleakala MPS 621028
2015 09 06.28183 00 00 57.26 -02 50 51.6 20.6 V 691 – Steward Observatory, Kitt Peak-Spacewatch MPS 626580
2015 09 06.30061 00 00 56.37 -02 50 59.6 20.3 V 691 – Steward Observatory, Kitt Peak-Spacewatch MPS 626580
2015 09 06.31940 00 00 55.48 -02 51 07.4 20.1 V 691 – Steward Observatory, Kitt Peak-Spacewatch MPS 626580
2015 09 09.41947 23 58 29.972 -03 13 45.73 20.3 w F51 – Pan-STARRS 1, Haleakala MPS 626580
2015 09 09.43162 23 58 29.348 -03 13 51.14 20.3 w F51 – Pan-STARRS 1, Haleakala MPS 626580
2015 09 09.44380 23 58 28.723 -03 13 56.54 20.2 w F51 – Pan-STARRS 1, Haleakala MPS 626580
2015 09 09.45601 23 58 28.100 -03 14 01.98 20.3 w F51 – Pan-STARRS 1, Haleakala MPS 626580
2015 09 09.66411 23 58 18.03 -03 15 36.1 20.5 R D29 – Purple Mountain Observatory, XuYi Station MPS 626580
2015 09 09.67910 23 58 17.24 -03 15 43.1 19.7 R D29 – Purple Mountain Observatory, XuYi Station MPS 626580
2015 09 09.69410 23 58 16.50 -03 15 49.6 20.1 R D29 – Purple Mountain Observatory, XuYi Station MPS 626580
2015 09 12.39712 23 56 01.495 -03 36 11.47 20.2 w F51 – Pan-STARRS 1, Haleakala MPS 628491
2015 09 12.40888 23 56 00.870 -03 36 16.84 20.3 w F51 – Pan-STARRS 1, Haleakala MPS 628491
2015 09 12.42063 23 56 00.230 -03 36 22.21 20.2 w F51 – Pan-STARRS 1, Haleakala MPS 628491
2015 09 12.43238 23 55 59.593 -03 36 27.42 20.3 w F51 – Pan-STARRS 1, Haleakala MPS 628491
2015 09 14.29558 23 54 23.11 -03 50 43.9 20.0 r G45 – Space Surveillance Telescope, Atom Site MPS 631749
2015 09 14.30094 23 54 22.82 -03 50 47.0 20.3 r G45 – Space Surveillance Telescope, Atom Site MPS 631749
2015 09 14.30623 23 54 22.54 -03 50 49.3 20.1 r G45 – Space Surveillance Telescope, Atom Site MPS 631749
2015 09 14.31125 23 54 22.22 -03 50 52.0 20.9 r G45 – Space Surveillance Telescope, Atom Site MPS 631749
2015 09 14.31633 23 54 21.95 -03 50 53.5 20.8 r G45 – Space Surveillance Telescope, Atom Site MPS 631749
2015 09 23.24957 23 46 19.83 -04 59 19.5 19.6 V 703 – Catalina Sky Survey MPS 631749
2015 09 23.25457 23 46 19.57 -04 59 22.1 19.8 V 703 – Catalina Sky Survey MPS 631749
2015 09 23.25957 23 46 19.32 -04 59 22.5 19.4 V 703 – Catalina Sky Survey MPS 631749
2015 09 23.26458 23 46 19.01 -04 59 25.8 20.2 V 703 – Catalina Sky Survey MPS 631749
2015 10 18.32428 23 27 34.866 -07 23 38.46 20.7 w F51 – Pan-STARRS 1, Haleakala MPS 641473
2015 10 18.36345 23 27 33.649 -07 23 46.05 20.8 w F51 – Pan-STARRS 1, Haleakala MPS 641473
2015 10 18.37611 23 27 33.256 -07 23 48.75 20.7 w F51 – Pan-STARRS 1, Haleakala MPS 641473
2015 10 18.38877 23 27 32.862 -07 23 51.16 20.8 w F51 – Pan-STARRS 1, Haleakala MPS 641473
